Montijo current weather conditions

sailwx.info

Wind from 200 at 4 knots

Air temperature 21.0° C
Dewpoint 15.0° C

Last reported at 2014-Sep-02 03:00 UTC.
Time now 2014-Sep-02 04:21 UTC

Location: N 38°42' W 009°02'.
View on Google Maps.

See reports from other nearby stations

  
Tides and Currents Weather Stations Pressure Air Temp Water Temp Dewpoint Dewpoint Depression Visibility Wind Speed Wind Dir Waves Ship Positions
date/time (UTC)wind fromknots sea level pressurealtimeterstation pressurevisibilityair tempwater tempwave heightnotes
2014-Sep-02 03:00 200 4 21.0
2014-Sep-02 02:00 200 3 19.0
2014-Sep-02 01:00 210 2 20.0
2014-Sep-02 00:00 190 4 21.0
2014-Sep-01 23:00 240 2 22.0
2014-Sep-01 22:00 310 5 23.0
2014-Sep-01 21:00 300 5 24.0
2014-Sep-01 20:00 320 5 26.0
2014-Sep-01 19:00 310 4 27.0
2014-Sep-01 18:00 280 6 28.0
2014-Sep-01 17:00 250 8 30.0
2014-Sep-01 16:00 260 10 29.0
2014-Sep-01 15:00 260 12 29.0
2014-Sep-01 14:00 270 11 28.0
2014-Sep-01 13:00 260 10 27.0
2014-Sep-01 12:00 270 8 27.0
2014-Sep-01 11:00 260 4 27.0
2014-Sep-01 10:00 25.0
2014-Sep-01 09:00 22.0
2014-Sep-01 08:00 130 4 19.0
2014-Sep-01 07:00 17.0
2014-Sep-01 06:00 230 1 15.0
2014-Sep-01 05:00 15.0
2014-Sep-01 04:00 16.0
2014-Sep-01 03:00 130 3 18.0
2014-Sep-01 02:00 070 2 17.0
2014-Sep-01 01:00 120 1 17.0
2014-Sep-01 00:00 170 3 19.0
2014-Aug-31 23:00 150 4 19.0
2014-Aug-31 22:00 210 1 18.0
2014-Aug-31 21:00 240 3 20.0
2014-Aug-31 20:00 200 5 22.0
2014-Aug-31 19:00 250 6 22.0
2014-Aug-31 18:00 260 7 25.0
2014-Aug-31 17:00 250 8 24.0
2014-Aug-31 16:00 260 11 25.0
2014-Aug-31 15:00 260 12 25.0
2014-Aug-31 14:00 270 9 25.0
2014-Aug-31 13:00 270 8 26.0
2014-Aug-31 12:00 250 4 26.0
2014-Aug-31 11:00 150 3 24.0
2014-Aug-31 10:00 23.0
2014-Aug-31 09:00 280 3 21.0
2014-Aug-31 08:00 330 3 20.0
2014-Aug-31 07:00 300 2 17.0
2014-Aug-31 06:00 320 3 18.0
2014-Aug-31 05:00 320 6 18.0